| time (UTC) | temp F | wind direction | speed MPH | gust MPH | rain 1hr in | rain 24hr in | rain mn in | humidity % | barometer mb |
| 20260901021550 | 75 | 0.0 | 0.0 | 0.00 | 0.00 | 0.00 | 93 | 1019.2 | |
| 20260901020549 | 75 | 0.0 | 0.0 | 0.00 | 0.00 | 0.00 | 93 | 1019.1 | |
| 20260901015520 | 75 | 0.0 | 0.0 | 0.00 | 0.00 | 0.00 | 92 | 1018.9 | |
| 20260901014519 | 76 | 0.0 | 0.0 | 0.00 | 0.00 | 0.00 | 90 | 1018.8 | |
| 20260901013620 | 77 | 0.0 | 2.0 | 0.00 | 0.00 | 0.00 | 88 | 1018.7 | |
| 20260901012540 | 77 | 162 | 0.0 | 2.0 | 0.00 | 0.00 | 0.00 | 88 | 1018.6 |
| 20260901011529 | 78 | 0.0 | 0.0 | 0.00 | 0.00 | 0.00 | 87 | 1018.4 | |
| 20260901010644 | 78 | 320 | 0.0 | 3.0 | 0.00 | 0.00 | 0.00 | 87 | 1018.2 |
| 20260901005520 | 79 | 241 | 1.0 | 3.0 | 0.00 | 0.00 | 0.00 | 85 | 1018.0 |
| 20260901004530 | 80 | 279 | 0.0 | 4.0 | 0.00 | 0.00 | 0.00 | 83 | 1018.0 |
| 20260901003520 | 80 | 252 | 2.0 | 4.0 | 0.00 | 0.00 | 0.00 | 83 | 1017.9 |
| 20260901002520 | 80 | 217 | 3.0 | 4.0 | 0.00 | 0.00 | 0.00 | 83 | 1017.9 |
| 20260901001540 | 81 | 209 | 3.0 | 4.0 | 0.00 | 0.00 | 0.00 | 82 | 1017.9 |
| 20260901000540 | 82 | 0.0 | 0.0 | 0.00 | 0.00 | 0.00 | 81 | 1018.1 | |
| 20260831235530 | 84 | 0.0 | 0.0 | 0.00 | 0.00 | 0.00 | 78 | 1018.1 | |
| 20260831234540 | 85 | 0.0 | 0.0 | 0.00 | 0.00 | 0.00 | 76 | 1018.1 | |
| 20260831233530 | 85 | 215 | 3.0 | 5.0 | 0.00 | 0.00 | 0.00 | 74 | 1018.0 |
| 20260831232520 | 86 | 209 | 3.0 | 4.0 | 0.00 | 0.00 | 0.00 | 73 | 1017.9 |
| 20260831231520 | 87 | 208 | 4.0 | 5.0 | 0.00 | 0.00 | 0.00 | 71 | 1018.0 |
| 20260831230520 | 89 | 197 | 4.0 | 5.0 | 0.00 | 0.00 | 0.00 | 69 | 1018.0 |
| 20260831225543 | 89 | 201 | 4.0 | 4.0 | 0.00 | 0.00 | 0.00 | 69 | 1018.0 |
| 20260831224520 | 88 | 204 | 3.0 | 4.0 | 0.00 | 0.00 | 0.00 | 69 | 1018.1 |
| 20260831223520 | 88 | 200 | 3.0 | 4.0 | 0.00 | 0.00 | 0.00 | 70 | 1018.2 |
| 20260831222530 | 89 | 215 | 3.0 | 4.0 | 0.00 | 0.00 | 0.00 | 69 | 1018.3 |
| 20260831221520 | 89 | 215 | 3.0 | 4.0 | 0.00 | 0.00 | 0.00 | 69 | 1018.3 |
| 20260831220610 | 89 | 202 | 4.0 | 6.0 | 0.00 | 0.00 | 0.00 | 66 | 1018.4 |
| 20260831215521 | 89 | 205 | 4.0 | 6.0 | 0.00 | 0.00 | 0.00 | 66 | 1018.4 |
| 20260831214520 | 90 | 203 | 4.0 | 5.0 | 0.00 | 0.00 | 0.00 | 65 | 1018.5 |
| 20260831213521 | 90 | 206 | 4.0 | 6.0 | 0.00 | 0.00 | 0.00 | 64 | 1018.5 |
| 20260831212530 | 91 | 212 | 5.0 | 6.0 | 0.00 | 0.00 | 0.00 | 62 | 1018.5 |
| 20260831211520 | 91 | 204 | 4.0 | 5.0 | 0.00 | 0.00 | 0.00 | 64 | 1018.6 |
| 20260831210540 | 90 | 233 | 4.0 | 5.0 | 0.00 | 0.00 | 0.00 | 63 | 1018.7 |
| 20260831205520 | 91 | 195 | 6.0 | 7.0 | 0.00 | 0.00 | 0.00 | 60 | 1018.8 |
| 20260831204530 | 90 | 229 | 6.0 | 7.0 | 0.00 | 0.00 | 0.00 | 62 | 1018.9 |
| 20260831203521 | 91 | 217 | 7.0 | 10.0 | 0.00 | 0.00 | 0.00 | 59 | 1019.0 |
| 20260831202520 | 93 | 221 | 6.0 | 8.0 | 0.00 | 0.00 | 0.00 | 57 | 1019.0 |
| 20260831201521 | 92 | 209 | 7.0 | 9.0 | 0.00 | 0.00 | 0.00 | 58 | 1019.2 |
| 20260831200521 | 94 | 210 | 5.0 | 7.0 | 0.00 | 0.00 | 0.00 | 58 | 1019.3 |
| 20260831195530 | 93 | 209 | 4.0 | 6.0 | 0.00 | 0.00 | 0.00 | 61 | 1019.5 |
| 20260831194520 | 93 | 211 | 4.0 | 9.0 | 0.00 | 0.00 | 0.00 | 57 | 1019.6 |
| 20260831193600 | 93 | 228 | 5.0 | 6.0 | 0.00 | 0.00 | 0.00 | 57 | 1019.7 |
| 20260831192550 | 93 | 9.0 | 14.0 | 0.00 | 0.00 | 0.00 | 58 | 1019.8 | |
| 20260831191531 | 94 | 256 | 2.0 | 5.0 | 0.00 | 0.00 | 0.00 | 61 | 1019.8 |
| 20260831190650 | 93 | 245 | 3.0 | 6.0 | 0.00 | 0.00 | 0.00 | 58 | 1020.0 |
| 20260831185551 | 92 | 270 | 2.0 | 4.0 | 0.00 | 0.00 | 0.00 | 65 | 1020.1 |
| 20260831184530 | 90 | 257 | 1.0 | 3.0 | 0.00 | 0.00 | 0.00 | 68 | 1020.1 |
| 20260831183541 | 92 | 239 | 4.0 | 5.0 | 0.00 | 0.00 | 0.00 | 64 | 1020.1 |
| 20260831182550 | 90 | 343 | 2.0 | 7.0 | 0.00 | 0.00 | 0.00 | 66 | 1020.4 |
| 20260831181521 | 91 | 211 | 4.0 | 6.0 | 0.00 | 0.00 | 0.00 | 65 | 1020.4 |
| 20260831180520 | 91 | 238 | 5.0 | 7.0 | 0.00 | 0.00 | 0.00 | 63 | 1020.5 |
| 20260831175600 | 90 | 248 | 5.0 | 8.0 | 0.00 | 0.00 | 0.00 | 63 | 1020.5 |
| 20260831174543 | 90 | 219 | 6.0 | 12.0 | 0.00 | 0.00 | 0.00 | 64 | 1020.5 |
| 20260831173530 | 90 | 219 | 7.0 | 9.0 | 0.00 | 0.00 | 0.00 | 65 | 1020.5 |
| 20260831172530 | 90 | 212 | 5.0 | 7.0 | 0.00 | 0.00 | 0.00 | 66 | 1020.6 |
| 20260831171540 | 90 | 223 | 6.0 | 9.0 | 0.00 | 0.00 | 0.00 | 67 | 1020.6 |
| 20260831170520 | 90 | 260 | 5.0 | 8.0 | 0.00 | 0.00 | 0.00 | 67 | 1020.8 |
| 20260831165541 | 89 | 231 | 5.0 | 8.0 | 0.00 | 0.00 | 0.00 | 66 | 1020.8 |
| 20260831164523 | 88 | 230 | 4.0 | 9.0 | 0.00 | 0.00 | 0.00 | 70 | 1020.9 |
| 20260831163551 | 88 | 226 | 7.0 | 9.0 | 0.00 | 0.00 | 0.00 | 70 | 1020.9 |
| 20260831162551 | 86 | 207 | 6.0 | 7.0 | 0.00 | 0.00 | 0.00 | 72 | 1020.9 |
| 20260831161600 | 87 | 204 | 7.0 | 9.0 | 0.00 | 0.00 | 0.00 | 72 | 1020.9 |
| 20260831160521 | 87 | 228 | 3.0 | 7.0 | 0.00 | 0.00 | 0.00 | 72 | 1020.9 |
| 20260831155601 | 86 | 215 | 6.0 | 9.0 | 0.00 | 0.00 | 0.00 | 73 | 1021.0 |
| 20260831154524 | 85 | 222 | 4.0 | 7.0 | 0.00 | 0.00 | 0.00 | 75 | 1020.9 |
| 20260831153521 | 85 | 218 | 4.0 | 7.0 | 0.00 | 0.00 | 0.00 | 73 | 1021.0 |
| 20260831152521 | 84 | 203 | 8.0 | 12.0 | 0.00 | 0.00 | 0.00 | 75 | 1020.9 |
| 20260831151524 | 84 | 208 | 7.0 | 11.0 | 0.00 | 0.00 | 0.00 | 76 | 1020.9 |
| 20260831150554 | 83 | 222 | 7.0 | 11.0 | 0.00 | 0.00 | 0.00 | 78 | 1020.9 |
| 20260831145521 | 82 | 210 | 8.0 | 9.0 | 0.00 | 0.00 | 0.00 | 78 | 1020.9 |
| 20260831144521 | 81 | 216 | 5.0 | 8.0 | 0.00 | 0.00 | 0.00 | 81 | 1020.8 |
| 20260831143521 | 80 | 201 | 5.0 | 7.0 | 0.00 | 0.00 | 0.00 | 83 | 1020.8 |
| 20260831142521 | 78 | 219 | 4.0 | 6.0 | 0.00 | 0.00 | 0.00 | 85 | 1020.7 |
| 20260831141521 | 77 | 208 | 3.0 | 4.0 | 0.00 | 0.00 | 0.00 | 86 | 1020.7 |
| 20260831140601 | 77 | 202 | 2.0 | 5.0 | 0.00 | 0.00 | 0.00 | 87 | 1020.7 |
| 20260831135521 | 76 | 0.0 | 0.0 | 0.00 | 0.00 | 0.00 | 87 | 1020.7 | |
| 20260831134522 | 76 | 0.0 | 0.0 | 0.00 | 0.00 | 0.00 | 89 | 1020.7 | |
| 20260831133521 | 75 | 0.0 | 0.0 | 0.00 | 0.00 | 0.00 | 91 | 1020.7 | |
| 20260831132521 | 74 | 0.0 | 0.0 | 0.00 | 0.00 | 0.00 | 92 | 1020.7 | |
| 20260831131521 | 73 | 0.0 | 0.0 | 0.00 | 0.00 | 0.00 | 93 | 1020.6 | |
| 20260831130521 | 72 | 0.0 | 0.0 | 0.00 | 0.00 | 0.00 | 95 | 1020.5 | |
| 20260831125521 | 72 | 0.0 | 0.0 | 0.00 | 0.00 | 0.00 | 96 | 1020.5 | |
| 20260831124521 | 71 | 0.0 | 0.0 | 0.00 | 0.00 | 0.00 | 97 | 1020.4 | |
| 20260831123521 | 71 | 0.0 | 0.0 | 0.00 | 0.00 | 0.00 | 98 | 1020.4 | |
| 20260831122522 | 70 | 0.0 | 0.0 | 0.00 | 0.00 | 0.00 | 98 | 1020.3 | |
| 20260831121521 | 70 | 0.0 | 0.0 | 0.00 | 0.00 | 0.00 | 98 | 1020.2 | |
| 20260831120521 | 69 | 0.0 | 0.0 | 0.00 | 0.00 | 0.00 | 98 | 1020.2 | |
| 20260831115521 | 69 | 0.0 | 0.0 | 0.00 | 0.00 | 0.00 | 98 | 1020.2 | |
| 20260831114521 | 69 | 0.0 | 0.0 | 0.00 | 0.00 | 0.00 | 98 | 1020.2 | |
| 20260831113521 | 68 | 0.0 | 0.0 | 0.00 | 0.00 | 0.00 | 98 | 1020.2 | |
| 20260831112521 | 68 | 0.0 | 0.0 | 0.00 | 0.00 | 0.00 | 97 | 1020.1 | |
| 20260831111522 | 68 | 0.0 | 0.0 | 0.00 | 0.00 | 0.00 | 97 | 1020.1 | |
| 20260831110521 | 68 | 0.0 | 0.0 | 0.00 | 0.00 | 0.00 | 97 | 1020.0 | |
| 20260831105531 | 68 | 0.0 | 0.0 | 0.00 | 0.00 | 0.00 | 97 | 1019.7 | |
| 20260831104711 | 69 | 0.0 | 0.0 | 0.00 | 0.00 | 0.00 | 96 | 1019.6 | |
| 20260831103521 | 69 | 0.0 | 0.0 | 0.00 | 0.00 | 0.00 | 96 | 1019.6 | |
| 20260831102521 | 69 | 0.0 | 0.0 | 0.00 | 0.00 | 0.00 | 96 | 1019.6 | |
| 20260831101522 | 69 | 0.0 | 0.0 | 0.00 | 0.00 | 0.00 | 96 | 1019.5 | |
| 20260831100522 | 69 | 0.0 | 0.0 | 0.00 | 0.00 | 0.00 | 96 | 1019.5 | |
| 20260831095521 | 69 | 0.0 | 0.0 | 0.00 | 0.00 | 0.00 | 96 | 1019.5 | |
| 20260831094541 | 70 | 0.0 | 0.0 | 0.00 | 0.00 | 0.00 | 95 | 1019.3 | |
| 20260831093522 | 69 | 0.0 | 0.0 | 0.00 | 0.00 | 0.00 | 95 | 1019.4 | |
| 20260831092541 | 70 | 0.0 | 0.0 | 0.00 | 0.00 | 0.00 | 95 | 1019.3 | |
| 20260831091522 | 70 | 0.0 | 0.0 | 0.00 | 0.00 | 0.00 | 95 | 1019.3 | |
| 20260831090521 | 70 | 0.0 | 0.0 | 0.00 | 0.00 | 0.00 | 94 | 1019.3 | |
| 20260831085521 | 70 | 0.0 | 0.0 | 0.00 | 0.00 | 0.00 | 93 | 1019.2 | |
| 20260831084521 | 70 | 0.0 | 0.0 | 0.00 | 0.00 | 0.00 | 92 | 1019.1 | |
| 20260831083521 | 71 | 0.0 | 0.0 | 0.00 | 0.00 | 0.00 | 91 | 1019.0 | |
| 20260831082522 | 72 | 0.0 | 0.0 | 0.00 | 0.00 | 0.00 | 89 | 1018.8 | |
| 20260831081522 | 73 | 0.0 | 0.0 | 0.00 | 0.00 | 0.00 | 88 | 1018.7 | |
| 20260831080542 | 74 | 0.0 | 0.0 | 0.00 | 0.00 | 0.00 | 86 | 1018.5 | |
| 20260831075522 | 73 | 0.0 | 0.0 | 0.00 | 0.00 | 0.00 | 87 | 1018.4 | |
| 20260831074522 | 73 | 0.0 | 0.0 | 0.00 | 0.00 | 0.00 | 88 | 1018.4 | |
| 20260831073522 | 72 | 0.0 | 0.0 | 0.00 | 0.00 | 0.00 | 90 | 1018.4 | |
| 20260831072522 | 72 | 0.0 | 0.0 | 0.00 | 0.00 | 0.00 | 92 | 1018.7 | |
| 20260831071521 | 71 | 0.0 | 0.0 | 0.00 | 0.00 | 0.00 | 94 | 1018.7 | |
| 20260831070521 | 71 | 0.0 | 0.0 | 0.00 | 0.00 | 0.00 | 95 | 1018.9 | |
| 20260831065523 | 70 | 0.0 | 0.0 | 0.00 | 0.00 | 0.00 | 96 | 1019.0 | |
| 20260831064522 | 70 | 0.0 | 0.0 | 0.00 | 0.00 | 0.00 | 97 | 1019.1 | |
| 20260831063522 | 70 | 0.0 | 0.0 | 0.00 | 0.00 | 0.00 | 97 | 1019.3 | |
| 20260831062522 | 70 | 0.0 | 0.0 | 0.00 | 0.00 | 0.00 | 97 | 1019.5 | |
| 20260831061522 | 70 | 0.0 | 0.0 | 0.00 | 0.00 | 0.00 | 98 | 1019.5 | |
| 20260831060543 | 70 | 0.0 | 0.0 | 0.00 | 0.00 | 0.00 | 98 | 1019.6 | |
| 20260831055522 | 70 | 0.0 | 0.0 | 0.00 | 0.00 | 0.00 | 98 | 1019.6 | |
| 20260831054522 | 70 | 0.0 | 0.0 | 0.00 | 0.00 | 0.00 | 98 | 1019.6 | |
| 20260831053522 | 70 | 0.0 | 0.0 | 0.00 | 0.00 | 0.00 | 98 | 1019.7 | |
| 20260831052522 | 70 | 0.0 | 0.0 | 0.00 | 0.00 | 0.00 | 98 | 1019.6 | |
| 20260831051522 | 70 | 0.0 | 0.0 | 0.00 | 0.00 | 0.00 | 98 | 1019.6 | |
| 20260831050522 | 70 | 0.0 | 0.0 | 0.00 | 0.00 | 0.00 | 98 | 1019.5 | |
| 20260831045522 | 69 | 0.0 | 0.0 | 0.00 | 0.00 | 0.00 | 98 | 1019.4 | |
| 20260831044522 | 69 | 0.0 | 0.0 | 0.00 | 0.00 | 0.00 | 97 | 1019.4 | |
| 20260831043523 | 69 | 0.0 | 0.0 | 0.00 | 0.00 | 0.00 | 97 | 1019.5 | |
| 20260831042522 | 69 | 0.0 | 0.0 | 0.00 | 0.00 | 0.00 | 97 | 1019.5 | |
| 20260831041603 | 69 | 0.0 | 0.0 | 0.00 | 0.00 | 0.00 | 97 | 1019.3 | |
| 20260831040522 | 69 | 0.0 | 0.0 | 0.00 | 0.00 | 0.00 | 97 | 1019.4 | |
| 20260831035542 | 70 | 0.0 | 0.0 | 0.00 | 0.00 | 0.00 | 97 | 1019.6 | |
| 20260831034523 | 70 | 0.0 | 0.0 | 0.00 | 0.00 | 0.00 | 97 | 1019.6 | |
| 20260831033522 | 70 | 0.0 | 0.0 | 0.00 | 0.00 | 0.00 | 96 | 1019.7 | |
| 20260831032522 | 70 | 0.0 | 0.0 | 0.00 | 0.00 | 0.00 | 96 | 1019.6 | |
| 20260831031543 | 70 | 0.0 | 0.0 | 0.00 | 0.00 | 0.00 | 96 | 1019.6 | |
| 20260831030522 | 71 | 0.0 | 0.0 | 0.00 | 0.00 | 0.00 | 96 | 1019.6 | |
| 20260831025522 | 71 | 0.0 | 0.0 | 0.00 | 0.00 | 0.00 | 96 | 1019.7 | |
| 20260831024523 | 71 | 0.0 | 0.0 | 0.00 | 0.00 | 0.00 | 95 | 1019.5 | |
| 20260831023522 | 71 | 0.0 | 0.0 | 0.00 | 0.00 | 0.00 | 95 | 1019.5 | |
| 20260831022522 | 71 | 0.0 | 0.0 | 0.00 | 0.00 | 0.00 | 94 | 1019.5 |